Location: Haliburton Scout Reserve
(45.0900°N, 78.3200°W)
Time: 13:33:05
(UTC-04:00)

Courier 1B Rocket - Pass Details

Date: 09 February 2023
Orbit: 920 x 1202 km, 28.2° (Epoch: 27 March)

Event Time Altitude Azimuth Distance (km) Brightness Sun altitude
Rises 15:27:31 0° 233° (SW) 3,721 9.7 17.8°
Reaches altitude 10° 15:31:17 10° 214° (SW) 2,719 9.4 17.3°
Maximum altitude 15:35:12 17° 177° (S) 2,224 7.6 16.8°
Drops below altitude 10° 15:39:01 10° 139° (SE) 2,636 7.3 16.3°
Sets 15:42:35 0° 119° (ESE) 3,557 7.7 15.8°
